Weather History for KLXV - July, 2013

Change the Weather History Date:

Thursday, July 25, 2013

  Actual Average Record
Temperature  
Mean Temperature 54 °F -  
Max Temperature 67 °F 70 °F 78 °F (1987)
Min Temperature 40 °F 39 °F 32 °F (1986)
Degree Days  
Heating Degree Days 11 10  
Month to date heating degree days 198 271  
Since 1 June heating degree days 569 751  
Since 1 July heating degree days 198 271  
Cooling Degree Days 0 0  
Month to date cooling degree days 0 0  
Year to date cooling degree days 0 0  
Since 1 June cooling degree days 0 0  
Growing Degree Days 4 (Base 50)    
Moisture  
Dew Point 44 °F    
Average Humidity 69    
Maximum Humidity 100    
Minimum Humidity 37    
Precipitation  
Precipitation 0.17 in 0.08 in 0.54 in (1989)
Month to date precipitation 2.00 1.43  
Year to date precipitation 9.46 6.50  
Sea Level Pressure  
Sea Level Pressure 30.22 in    
Wind  
Wind Speed 7 mph (NNW)    
Max Wind Speed 32 mph    
Max Gust Speed 40 mph    
Visibility 8 miles    
Events Fog , Rain , Thunderstorm    
T = Trace of Precipitation, MM = Missing Value Source: NWS Daily Summary

Daily Weather History Graph

Daily Weather History Graph

Search for Another Location

Airport or City:

Trip Planner

Search our weather history database for the weather conditions in past years. The results will help you decide how hot, cold, wet, or windy it might be!

Date:

Astronomy

Jul. 25, 2013 Rise Set
Actual Time 5:59 AM MDT 8:23 PM MDT
Civil Twilight 5:29 AM MDT 8:53 PM MDT
Nautical Twilight 4:51 AM MDT 9:31 PM MDT
Astronomical Twilight 4:09 AM MDT 10:12 PM MDT
Moon 10:07 PM MDT (7/25) 9:30 AM MDT (7/25)
Length of Visible Light 15h 24m
Length of Day
14h 23m
Waning Gibbous, 88% of the Moon is Illuminated
Jul 25
Waning Gibbous
Jul 29
Last Quarter
Aug 6
New
Aug 14
First Quarter
Aug 20
Full

Hourly Weather History & Observations

Time (MDT) Temp. Windchill Dew Point Humidity Pressure Visibility Wind Dir Wind Speed Gust Speed Precip Events Conditions
12:53 AM 45.0 °F 42.6 °F 39.9 °F 82% 30.00 in 10.0 mi ENE 4.6 mph - N/A   Mostly Cloudy
1:53 AM 46.9 °F - 41.0 °F 80% 29.98 in 10.0 mi East 3.5 mph - N/A   Overcast
2:53 AM 48.9 °F - 42.1 °F 77% 29.98 in 9.0 mi Calm Calm - 0.00 in Rain Light Rain
3:53 AM 46.0 °F 42.5 °F 45.0 °F 96% 29.97 in 10.0 mi NE 6.9 mph - 0.03 in Rain Light Rain
4:53 AM 46.9 °F - 45.0 °F 93% 29.98 in 4.0 mi Calm Calm - 0.06 in Rain Light Rain
5:41 AM 46.4 °F 42.9 °F 44.6 °F 93% 30.45 in 0.8 mi West 6.9 mph - 0.00 in   Mostly Cloudy
5:49 AM 44.6 °F 43.1 °F 44.6 °F 100% 30.45 in 0.2 mi Variable 3.5 mph - 0.00 in Fog Fog
5:50 AM 45.0 °F 43.5 °F 45.0 °F 100% 29.98 in 0.2 mi West 3.5 mph - 0.00 in Fog Fog
5:59 AM 44.6 °F - 44.6 °F 100% 30.46 in 0.5 mi Calm Calm - N/A Fog Fog
6:15 AM 44.6 °F - 44.6 °F 100% 30.46 in 1.2 mi Calm Calm - N/A   Overcast
6:21 AM 46.4 °F 44.3 °F 44.6 °F 93% 30.47 in 3.0 mi NNW 4.6 mph - 0.00 in Rain Light Rain
6:39 AM 46.4 °F 42.9 °F 44.6 °F 93% 30.46 in 2.0 mi NNE 6.9 mph - 0.01 in Rain Light Rain
6:49 AM 46.4 °F 45.2 °F 44.6 °F 93% 30.46 in 10.0 mi Variable 3.5 mph - 0.01 in   Overcast
6:53 AM 46.0 °F 44.8 °F 45.0 °F 96% 29.98 in 10.0 mi ENE 3.5 mph - 0.01 in   Overcast
7:53 AM 50.0 °F - 45.0 °F 83% 29.97 in 10.0 mi Variable 3.5 mph - N/A   Overcast
8:53 AM 55.9 °F - 46.0 °F 69% 29.99 in 10.0 mi Variable 5.8 mph - N/A   Overcast
9:53 AM 55.0 °F - 45.0 °F 69% 30.03 in 10.0 mi NNW 10.4 mph 18.4 mph N/A   Overcast
10:53 AM 61.0 °F - 44.1 °F 54% 30.02 in 10.0 mi NW 9.2 mph - N/A   Scattered Clouds
11:53 AM 61.0 °F - 42.1 °F 50% 30.04 in 10.0 mi NW 6.9 mph 18.4 mph N/A   Overcast
12:53 PM 60.1 °F - 44.1 °F 55% 30.04 in 10.0 mi WNW 8.1 mph - 0.00 in Rain Light Rain
1:53 PM 64.9 °F - 39.0 °F 39% 29.99 in 10.0 mi West 6.9 mph - 0.00 in   Mostly Cloudy
2:25 PM 60.8 °F - 42.8 °F 52% 30.52 in 10.0 mi NNW 17.3 mph 23.0 mph N/A Thunderstorm Thunderstorm
2:41 PM 55.4 °F - 46.4 °F 72% 30.54 in 8.0 mi North 9.2 mph - 0.00 in Rain , Thunderstorm Light Thunderstorms and Rain
2:50 PM 55.4 °F - 44.6 °F 67% 30.54 in 9.0 mi North 9.2 mph - 0.00 in Rain Light Rain
2:53 PM 55.0 °F - 45.0 °F 69% 30.09 in 9.0 mi NW 11.5 mph - 0.00 in Rain Light Rain
3:53 PM 62.1 °F - 44.1 °F 52% 30.03 in 10.0 mi Variable 6.9 mph - 0.00 in   Scattered Clouds
4:53 PM 64.9 °F - 37.9 °F 37% 29.99 in 10.0 mi NW 10.4 mph - N/A   Clear
5:53 PM 64.9 °F - 37.9 °F 37% 30.00 in 10.0 mi WNW 12.7 mph 17.3 mph N/A   Scattered Clouds
6:49 PM 60.8 °F - 39.2 °F 45% 30.52 in 10.0 mi NNW 21.9 mph 32.2 mph N/A Thunderstorm Mostly Cloudy
6:53 PM 55.9 °F - 42.1 °F 60% 30.08 in 10.0 mi North 25.3 mph 34.5 mph 0.00 in Rain , Thunderstorm Light Rain
7:05 PM 51.8 °F - 42.8 °F 71% 30.55 in 7.0 mi North 25.3 mph 40.3 mph 0.00 in Rain , Thunderstorm Light Rain
7:14 PM 48.2 °F - 44.6 °F 87% 30.55 in 1.8 mi NNE 13.8 mph 26.5 mph 0.02 in Rain , Thunderstorm Heavy Thunderstorms and Rain
7:27 PM 48.2 °F - 44.6 °F 87% 30.54 in 3.0 mi NNE 17.3 mph 29.9 mph 0.05 in Rain , Thunderstorm Light Rain
7:49 PM 48.2 °F - 46.4 °F 93% 30.56 in 10.0 mi West 4.6 mph - 0.05 in   Scattered Clouds
7:53 PM 48.9 °F - 46.0 °F 90% 30.14 in 10.0 mi WNW 4.6 mph - 0.05 in   Mostly Cloudy
8:53 PM 48.0 °F - 46.0 °F 93% 30.12 in 10.0 mi ESE 4.6 mph - 0.02 in   Mostly Cloudy
9:53 PM 46.9 °F - 45.0 °F 93% 30.16 in 10.0 mi Calm Calm - N/A   Partly Cloudy
10:53 PM 43.0 °F 40.3 °F 42.1 °F 97% 30.16 in 10.0 mi ENE 4.6 mph - N/A   Clear
11:53 PM 42.1 °F 40.2 °F 39.9 °F 92% 30.15 in 10.0 mi East 3.5 mph - N/A   Clear